Home   Weather   Shizuoka   Past weeks

Flag for Japan Past Weather in Shizuoka, Japan — Yesterday and Last 2 Weeks

Now
36 °F

Chilly.


Feels Like: 27 °F
Forecast: 33 / 54 °F
Wind: 15 mph from West

Location: Omaezaki

Current Time: Jan 16, 2017 at 10:00:42 pm

Latest Report: Jan 16, 2017 at 9:00 pm


Visibility: 13 mi

Pressure: 30.00 "Hg

Humidity: 69%

Dew Point: 27 °F

Location of ShizuokaLocation

Past Weather in Shizuoka — Graph

°F

Shizuoka Temperature Yesterday

Maximum temperature yesterday: 41 °F (at 2:00 pm)
Minimum temperature yesterday: 28 °F (at 3:00 am)
Average temperature yesterday: 34 °F

High & Low Weather Summary for the Past Weeks

 TemperatureHumidityPressure
High56 °F (Jan 9, 1:00 pm)90% (Jan 9, 1:00 am)30.25 "Hg (Jan 9, 1:00 am)
Low28 °F (Jan 15, 3:00 am)28% (Jan 5, 3:00 pm)29.44 "Hg (Jan 8, 10:00 pm)
Average45 °F60%29.91 "Hg
* Reported Jan 1 8:00 pm — Jan 16 8:00 pm, Shizuoka, Weather by CustomWeather, © 2017

Note: Actual official high and low records may vary slightly from our data, if they occured in-between our weather recording intervals... More about our weather records

Advertising

Shizuoka Weather History for the Previous 24 Hours

Scroll right to see more
 ConditionsComfort  
Time TempWeatherWind HumidityBarometerVisibility
8:00 pm
Mon, Jan 16
37 °FChilly.21 mph77%29.99 "Hg12 mi
7:00 pm37 °FChilly.21 mph69%29.97 "Hg12 mi
6:00 pm38 °FChilly.22 mph64%29.95 "Hg12 mi
5:00 pm39 °FChilly.13 mph55%29.95 "Hg12 mi
4:00 pm41 °FQuite cool.20 mph49%29.93 "Hg12 mi
3:00 pm42 °FQuite cool.22 mph45%29.92 "Hg12 mi
2:00 pm43 °FQuite cool.23 mph37%29.90 "Hg12 mi
1:00 pm43 °FQuite cool.20 mph39%29.91 "Hg12 mi
12:00 pm42 °FQuite cool.22 mph38%29.92 "Hg12 mi
11:00 am42 °FQuite cool.21 mph40%29.95 "Hg12 mi
10:00 am40 °FQuite cool.17 mph52%29.96 "Hg12 mi
9:00 am38 °FChilly.20 mph63%29.96 "Hg12 mi
8:00 am36 °FChilly.18 mph67%29.95 "Hg12 mi
7:00 am35 °FChilly.14 mph69%29.93 "Hg12 mi
6:00 am35 °FChilly.17 mph74%29.93 "Hg12 mi
5:00 am34 °FChilly.18 mph80%29.92 "Hg12 mi
4:00 am34 °FChilly.13 mph77%29.93 "Hg12 mi
3:00 am33 °FChilly.16 mph73%29.94 "Hg12 mi
2:00 am34 °FChilly.16 mph74%29.94 "Hg12 mi
1:00 am33 °FChilly.13 mph72%29.93 "Hg12 mi
12:00 am34 °FChilly.15 mph74%29.93 "Hg12 mi
11:00 pm
Sun, Jan 15
32 °FChilly.14 mph77%29.95 "Hg12 mi
10:00 pm33 °FChilly.14 mph71%29.95 "Hg12 mi
Weather by CustomWeather, © 2017

See weather overviewHow to use our weather pages